Terminal Aerodrome Forecast
Issued by NWS Billings, MT

Home | Current Version | Previous Version | Text Only | Print | Product List | Glossary On
Versions: 1 2 3 4 5 6 7 8 9 10 11 12 13 14 15 16 17 18 19 20 21 22 23 24 25 26 27 28 29
000
FTUS45 KBYZ 260143 AAA
TAFBIL
TAF AMD
KBIL 260143Z 2602/2624 35018G22KT P6SM SKC
     FM260300 30008KT P6SM SKC
     FM261600 33010G22KT P6SM SKC
     FM262200 36015G29KT P6SM SKC=

USA.gov is the U.S. government's official web portal to all federal, state and local government web resources and services.